ORBCOMM FM109 1 40086U 14040A 21018.39307513 -.00000090 00000-0 17444-4 0 9994 2 40086 47.0054 36.1099 0001401 152.1664 207.9295 14.54845227346424 ORBCOMM FM107 1 40087U 14040B 21018.75917091 -.00000084 00000-0 18805-4 0 9998 2 40087 47.0073 35.0324 0001641 168.1486 191.9437 14.54851934346523 ORBCOMM FM106 1 40088U 14040C 21018.28560208 -.00000074 00000-0 20284-4 0 9994 2 40088 47.0634 334.4673 0018927 182.4061 177.6740 14.64451499347154 ORBCOMM FM111 1 40089U 14040D 21018.35949232 -.00000097 00000-0 15429-4 0 9991 2 40089 47.0079 5.3586 0034845 111.7771 248.6836 14.77350777351617 ORBCOMM FM104 1 40090U 14040E 21018.45644112 -.00000085 00000-0 19578-4 0 9999 2 40090 47.0071 52.6382 0016850 67.1269 293.1392 14.53459132346202 ORBCOMM FM103 1 40091U 14040F 21018.43856512 -.00000087 00000-0 18255-4 0 9990 2 40091 47.0076 36.8377 0001341 144.3832 215.7142 14.54854183329489